Location: C?rpini?
(45.8833°N, 23.0333°E)
Time: 09:44:50
(UTC+00:00)

Daily predictions for brighter satellites

Satellite Brightness Start Highest point End
(mag) Time Altitude Azimuth Time Altitude Azimuth Time Altitude Azimuth
SL-16 R/B 2.6 15:06:45 10° NNE 15:13:02 74° ESE 15:19:12 10° S
CORIOLIS 4.4 15:09:05 10° SE 15:14:08 45° ENE 15:19:12 10° N
Cosmos 44 3.5 15:14:44 10° NW 15:20:01 83° NE 15:25:23 10° SE
USA 276 1.7 15:18:58 10° W 15:20:09 31° SSW 15:21:18 10° SE
BREEZE-M DEB (TANK) 3.0 15:21:23 10° S 15:22:22 14° SE 15:23:26 10° ESE
Cosmos 1455 Rocket 3.1 15:18:37 10° S 15:22:56 88° WNW 15:27:18 10° N
Cosmos 2151 4.4 15:20:55 10° NNE 15:23:37 17° ENE 15:26:18 10° ESE
CZ-2D R/B 3.8 15:22:31 10° SE 15:25:06 24° ENE 15:27:42 10° NNE
NOSS 2-2 (C) 3.2 15:21:56 10° SSW 15:25:14 47° SE 15:28:10 10° NE
NOSS 8 (E) 4.4 15:22:34 10° NW 15:25:33 77° SW 15:29:06 10° SSE
Cosmos 1570 Rocket 4.4 15:23:13 10° N 15:28:16 41° ENE 15:33:16 10° SE
Cosmos 1782 3.6 15:26:20 10° SSE 15:29:19 25° E 15:32:19 10° NE
Lacrosse 5 rocket 1.0 15:25:44 10° SW 15:29:30 81° SE 15:33:06 11° NE
Meteor 1-28 Rocket 2.8 15:26:26 10° NNE 15:29:48 86° E 15:33:09 10° SSW
Cosmos 1743 3.7 15:33:00 10° NNE 15:35:26 19° ENE 15:37:51 10° ESE
SMAP 3.0 15:35:26 10° SSE 15:40:02 68° ENE 15:44:41 10° N
YAOGAN 1 4.0 15:38:24 10° E 15:41:03 16° ENE 15:43:42 10° NNE
COSMO-SKYMED 1 4.2 15:42:46 13° E 15:43:24 13° E 15:45:28 10° ESE
GEOS 3 Rocket 4.3 15:39:58 10° NNE 15:45:12 54° NW 15:50:25 10° WSW
Meteor 1-27 4.3 15:40:14 10° S 15:46:04 89° W 15:51:54 10° N
Landsat 7 3.8 15:42:19 10° SSE 15:46:53 60° ENE 15:51:29 10° N
Lacrosse 4 Rocket 2.0 15:45:21 10° SW 15:49:22 53° NW 15:53:20 10° NNE
IRS-1C 4.1 15:48:46 10° SSE 15:54:02 72° ENE 15:59:21 10° N
CENTAUR R/B 2.9 15:49:22 10° SW 15:54:54 61° NW 16:01:56 10° NE
SPOT 1/Viking Rocket 4.1 15:50:17 10° SE 15:54:59 36° ENE 15:59:43 10° N
ATLAS CENTAUR R/B 2.0 15:52:49 10° N 15:55:27 22° NE 15:56:00 21° ENE
BREEZE-M DEB (TANK) 4.0 15:52:56 10° WNW 15:55:45 40° N 16:01:03 16° ENE
IGS 5A 4.4 15:52:12 10° S 15:56:01 48° W 15:59:52 10° NNW
AQUARIUS 4.1 15:53:24 10° SSE 15:57:43 58° ENE 16:02:03 10° N
MOS 1 Rocket 3.5 15:53:08 10° SSE 15:57:44 54° ENE 16:02:38 10° N
ARIANE 5 R/B 2.4 15:54:04 10° SSE 15:59:05 80° ENE 16:04:11 10° NNW
Cosmos 2208 Rocket 4.1 15:54:31 10° NNW 15:59:35 52° ENE 16:04:36 10° SE
Cosmos 1758 Rocket 3.4 15:55:42 10° N 16:00:00 64° E 16:04:15 10° SSE
Cosmos 2297 Rocket 2.5 15:54:38 10° NNW 16:00:01 42° NE 16:05:22 10° SE
Cosmos 2098 Rocket 2.9 15:58:08 10° S 16:01:41 53° E 16:05:55 10° NNE
Cosmos 2084 4.4 15:59:00 10° WSW 16:02:58 40° NW 16:06:28 13° NNE
USA 215 4.0 15:58:37 16° ENE 16:03:08 36° N 16:08:59 10° NW
Cosmos 773 Rocket 4.0 15:58:30 10° NNW 16:03:38 56° ENE 16:08:45 10° SE
CZ-2D R/B 4.2 16:00:08 10° SE 16:03:51 31° ENE 16:07:34 10° N
UNK 4.0 16:02:33 10° N 16:07:08 68° WNW 16:11:39 10° SSW
Cosmos 1656 3.6 16:06:55 10° SSW 16:12:28 70° ESE 16:17:23 14° NNE
Cosmos 1241 Rocket 4.4 16:07:20 10° SSW 16:13:43 75° ESE 16:18:47 17° NE
Cosmos 2228 4.1 16:14:06 10° SSW 16:18:08 44° WNW 16:22:13 10° N
Cosmos 405 Rocket 3.3 16:18:31 10° NNW 16:21:41 46° W 16:24:48 10° S
NOSS 2-2 (D) 2.7 16:18:40 10° SW 16:22:07 82° NW 16:23:09 39° NNE
Cosmos 1626 Rocket 4.2 16:21:05 10° NNW 16:25:22 57° W 16:29:35 10° S
NOSS 2-2 (E) 2.6 16:22:12 10° SW 16:25:41 84° SE 16:26:26 48° NE
SJ-6F 4.4 16:22:34 10° S 16:26:31 80° WSW 16:30:32 10° NNW
Cosmos 1980 Rocket 4.2 16:24:57 10° SE 16:25:21 11° SE 16:25:21 11° SE
Helios 1A Rocket 4.4 16:30:55 16° SSE 16:30:55 16° SSE 16:31:55 10° SSE
Okean 1-7 Rocket 3.5 16:27:30 10° N 16:31:53 60° E 16:36:11 10° SSE
Cosmos 1606 Rocket 3.7 16:28:22 10° SSE 16:32:34 46° E 16:33:46 36° NE
Cosmos 2279 Rocket 4.5 16:27:23 10° SSW 16:33:29 61° WNW 16:39:40 10° N
Cosmos 1461 3.7 16:33:05 10° S 16:35:59 30° SE 16:35:59 30° SE
Resurs 1-3 3.6 16:33:25 10° SSE 16:37:37 54° ENE 16:41:49 10° N
Cosmos 2360 4.1 16:32:37 10° SSW 16:38:19 82° ESE 16:42:03 23° NNE
CZ-4C R/B 3.0 16:32:05 10° NNW 16:38:51 57° NE 16:44:46 20° ESE
NOSS 3-2 (C) 3.1 16:35:11 10° SSW 16:40:00 57° ESE 16:41:55 37° ENE
BlueWalker 3 1.6 16:36:34 10° WNW 16:40:13 76° NNE 16:40:30 69° ENE
NOSS 3-2 (A) 3.5 16:38:29 10° SW 16:43:27 60° NW 16:47:01 23° NNE
Cosmos 2263 Rocket 3.3 16:40:24 10° N 16:44:07 26° NNE 16:44:07 26° NNE
Cosmos 1503 Rocket 3.9 16:42:19 10° SSW 16:47:34 73° ESE 16:49:52 34° NNE
SKYMED 2 3.5 16:46:36 22° N 16:49:22 84° WNW 16:53:43 10° SSW
IRAS Rocket 4.1 16:44:07 10° SSE 16:49:34 70° ENE 16:55:02 10° NNW
Cosmos 2227 Rocket 2.4 16:45:18 10° NNW 16:50:44 46° ENE 16:51:16 45° ENE
Cosmos 1354 Rocket 4.0 16:47:53 10° S 16:53:02 57° ESE 16:53:57 50° ENE
Cosmos 1933 3.0 16:49:34 10° S 16:53:24 86° E 16:53:31 83° NE
Spot 4 Rocket 3.9 16:50:09 10° SSE 16:55:15 89° ENE 17:00:24 10° NNW
USA 290 3.8 16:52:52 10° NNW 16:54:37 29° NNW 16:54:37 29° NNW
BREEZE M DEB (TANK) 3.3 16:49:02 10° WNW 16:58:05 59° SW 16:59:19 39° SSE
Cosmos 1726 Rocket 3.5 16:55:57 10° S 17:00:32 69° E 17:00:32 69° E
Cosmos 2151 3.9 16:56:43 10° NNW 17:00:41 46° W 17:04:40 10° SSW
Cosmos 1867 3.6 16:57:57 10° NNW 17:03:21 57° NE 17:03:27 57° NE
Lacrosse 5 rocket 2.9 17:03:50 10° WNW 17:06:43 23° NNW 17:06:43 23° NNW
Gbstr 26 Del rocket 4.4 17:04:02 10° SSW 17:06:06 24° S 17:06:06 24° S
Cosmos 1697 Rocket 2.5 17:04:56 10° SSW 17:10:29 71° ESE 17:11:02 66° ENE
Cosmos 1777 Rocket 4.4 17:07:29 10° SW 17:12:41 60° WNW 17:15:05 31° N
YAOGAN 1 3.1 17:12:18 10° S 17:16:28 56° W 17:20:40 10° NNW
COSMO-SKYMED 1 2.9 17:19:06 58° WNW 17:19:06 58° WNW 17:23:07 10° SSW
PSLV R/B 4.2 17:17:00 10° S 17:21:33 49° WNW 17:24:54 10° NNW
Cosmos 1607 4.2 17:21:00 10° NW 17:27:09 65° WSW 17:30:36 27° SSE
BREEZE-M DEB (TANK) 4.2 17:24:21 10° WNW 17:28:29 75° NNE 17:30:10 57° E
ATLAS CENTAUR R/B 3.6 17:27:28 10° NW 17:28:21 16° WNW 17:28:21 16° WNW
USA 238 DEB 4.4 17:33:11 10° SSW 17:36:31 33° S 17:36:31 33° S
USA 238 4.5 17:33:17 10° SSW 17:36:34 32° S 17:36:34 32° S
Cosmos 2297 Rocket 3.8 17:38:55 10° NW 17:43:55 33° WSW 17:48:54 10° SSW
USA 215 3.3 17:45:58 62° N 17:45:58 62° N 17:51:59 10° NW
CENTAUR R/B 4.3 17:42:02 10° WNW 17:47:08 24° NNW 17:49:09 21° N
Cosmos 1980 Rocket 4.1 18:05:29 10° SSW 18:07:09 20° SSW 18:07:09 20° SSW
CZ-4C R/B 3.9 18:20:23 10° NW 18:27:18 45° WSW 18:29:51 36° SSW
Cosmos 2263 Rocket 4.2 18:23:54 10° NNW 18:25:49 22° NW 18:25:49 22° NW
Cosmos 2227 Rocket 4.0 18:29:42 10° NW 18:33:08 27° WNW 18:33:08 27° WNW
